Location: Kitchener-Waterloo
(43.4500°N, 80.5000°W)
Time: 05:43:23
(UTC-05:00)

ISS - All Passes

Search period start: 16 January 2017 00:00
Search period end: 26 January 2017 00:00
Orbit: 400 x 410 km, 51.6° (Epoch: 17 January)

Date Brightness Start Highest point End Pass type
(mag) Time Alt. Az. Time Alt. Az. Time Alt. Az.
16 Jan - 00:27:36 10° SW 00:30:46 54° SE 00:33:57 10° ENE night (unlit)
16 Jan - 02:04:31 10° W 02:07:24 29° NNW 02:10:19 10° NE night (unlit)
16 Jan - 03:42:12 10° NW 03:44:36 19° N 03:47:01 10° NE night (unlit)
16 Jan - 05:18:46 10° NW 05:21:46 33° NNE 05:24:46 10° E visible
16 Jan - 06:55:13 10° WNW 06:58:19 42° SW 07:01:25 10° SSE visible
16 Jan - 23:35:51 10° SSW 23:38:43 29° SE 23:41:36 10° ENE night (unlit)
17 Jan - 01:12:01 10° W 01:15:07 41° NNW 01:18:14 10° NE night (unlit)
17 Jan - 02:49:45 10° NW 02:52:12 19° N 02:54:40 10° NE night (unlit)
17 Jan - 04:26:41 10° NW 04:29:27 25° NNE 04:32:14 10° ENE visible
17 Jan - 06:02:58 10° WNW 06:06:13 80° SW 06:09:28 10° SE visible
17 Jan - 07:41:55 10° SW 07:42:11 10° SW 07:42:26 10° SW daylight
17 Jan - 22:44:37 10° S 22:46:44 16° SE 22:48:51 10° E night (unlit)
18 Jan - 00:19:38 10° WSW 00:22:53 67° NNW 00:26:07 10° NE night (unlit)
18 Jan - 01:57:12 10° WNW 01:59:48 22° N 02:02:24 10° NE night (unlit)
18 Jan - 03:34:30 10° NW 03:37:04 21° N 03:39:38 10° ENE night (unlit)
18 Jan - 05:10:48 10° NW 05:14:02 59° NNE 05:17:15 10° ESE visible
18 Jan - 06:47:53 10° W 06:50:15 19° SW 06:52:36 10° S visible
18 Jan - 23:27:28 10° SW 23:30:42 69° SE 23:33:56 10° ENE night (unlit)
19 Jan - 01:04:35 10° WNW 01:07:25 26° NNW 01:10:15 10° NE night (unlit)
19 Jan - 02:42:13 10° NW 02:44:39 19° N 02:47:05 10° NE night (unlit)
19 Jan - 04:18:42 10° NW 04:21:46 37° NNE 04:24:50 10° E visible
19 Jan - 05:55:14 10° WNW 05:58:13 33° SW 06:01:12 10° SSE visible
19 Jan - 22:35:34 10° SSW 22:38:35 36° SE 22:41:37 10° ENE night (unlit)
20 Jan - 00:12:02 10° W 00:15:05 36° NNW 00:18:07 10° NE night (unlit)
20 Jan - 01:49:47 10° NW 01:52:12 19° N 01:54:38 10° NE night (unlit)
20 Jan - 03:26:34 10° NW 03:29:26 27° NNE 03:32:17 10° E night (unlit)
20 Jan - 05:02:53 10° WNW 05:06:07 64° SW 05:09:19 10° SE visible
20 Jan - 21:44:04 10° S 21:46:32 20° SE 21:49:01 10° E night (unlit)
20 Jan - 23:19:34 10° WSW 23:22:46 55° NNW 23:26:00 10° NE night (unlit)
21 Jan - 00:57:13 10° WNW 00:59:45 21° N 01:02:18 10° NE night (unlit)
21 Jan - 02:34:23 10° NW 02:37:01 22° NNE 02:39:39 10° ENE night (unlit)
21 Jan - 04:10:40 10° NW 04:13:55 72° NNE 04:17:09 10° ESE night (unlit)
21 Jan - 05:48:04 10° W 05:50:02 15° SW 05:52:00 10° S visible
21 Jan - 20:53:36 10° SSE 20:54:33 11° SE 20:55:30 10° ESE night (unlit)
21 Jan - 22:27:17 10° SW 22:30:32 85° SE 22:33:48 10° ENE night (unlit)
22 Jan - 00:04:34 10° WNW 00:07:19 24° NNW 00:10:04 10° NE night (unlit)
22 Jan - 01:42:06 10° NW 01:44:34 19° N 01:47:02 10° NE night (unlit)
22 Jan - 03:18:30 10° NW 03:21:39 43° NNE 03:24:45 10° E night (unlit)
22 Jan - 04:55:11 10° WNW 04:58:00 27° SW 05:00:48 10° SSE visible
22 Jan - 21:35:13 10° SW 21:38:21 45° SE 21:41:30 10° ENE night (unlit)
22 Jan - 23:11:57 10° W 23:14:55 32° NNW 23:17:54 10° NE night (unlit)
23 Jan - 00:49:40 10° NW 00:52:05 19° N 00:54:30 10° NE night (unlit)
23 Jan - 02:26:20 10° NW 02:29:16 30° NNE 02:32:13 10° E night (unlit)
23 Jan - 04:02:43 10° WNW 04:05:52 50° SW 04:09:02 10° SE night (unlit)
23 Jan - 20:43:30 10° SSW 20:46:14 25° SE 20:48:58 10° E night (unlit)
23 Jan - 22:19:24 10° WSW 22:22:34 47° NNW 22:25:44 10° NE night (unlit)
23 Jan - 23:57:06 10° WNW 23:59:36 20° N 00:02:05 10° NE night (unlit)
24 Jan - 01:34:09 10° NW 01:36:51 23° NNE 01:39:33 10° ENE night (unlit)
24 Jan - 03:10:25 10° WNW 03:13:40 87° NNE 03:16:55 10° ESE night (unlit)
24 Jan - 04:48:20 10° WSW 04:49:42 12° SW 04:51:03 10° SSW night (unlit)
24 Jan - 19:52:25 10° SSE 19:54:11 14° SE 19:55:56 10° E night (unlit)
24 Jan - 21:27:00 10° WSW 21:30:15 78° NNW 21:33:31 10° NE night (unlit)
24 Jan - 23:04:26 10° WNW 23:07:07 23° NNW 23:09:47 10° NE night (unlit)
25 Jan - 00:41:51 10° NW 00:44:23 20° N 00:46:53 10° ENE night (unlit)
25 Jan - 02:18:11 10° NW 02:21:23 51° NNE 02:24:33 10° ESE night (unlit)
25 Jan - 03:55:04 10° W 03:57:40 22° SW 04:00:14 10° S night (unlit)
25 Jan - 20:34:48 10° SW 20:38:01 57° SE 20:41:14 10° ENE night (unlit)
25 Jan - 22:11:46 10° W 22:14:40 28° NNW 22:17:33 10° NE night (unlit)
25 Jan - 23:49:26 10° NW 23:51:51 19° N 23:54:17 10° NE night (unlit)
